This demonstration page uses our WeatherBlox Daily Observations layout. Learn more.

Left ArrowRight Arrow

41.55636, -103.73856

Hourly Observations for January 24, 2022

Temp ( °F °C ) Dew Point ( °F °C ) Humidity (%) Winds ( mph kmh ) Pressure ( in mb ) Visibility ( mi km ) Precip ( " mm )
12:58 am 00:58 Clear 31 -0.4 21 -6 66 66 W 10 17 29.90 1013 10 16 0.00 0.00
1:58 am 01:58 Clear 29 -1.7 20 -6.5 70 70 W 12 19 29.92 1013 10 16 0.00 0.00
2:58 am 02:58 Clear 32 0.2 19 -7.2 58 58 W 12 19 29.92 1013 10 16 0.00 0.00
3:58 am 03:58 Clear 30 -1 19 -7.3 63 63 W 8 13 29.93 1014 10 16 0.00 0.00
4:58 am 04:58 Clear 28 -2.4 18 -7.7 67 67 WSW 5 7 29.98 1015 10 16 0.00 0.00
5:58 am 05:58 Clear 32 -0.2 18 -7.7 57 57 WNW 12 19 30.00 1016 10 16 0.00 0.00
6:58 am 06:58 Clear 25 -3.9 17 -8.3 72 72 SW 5 7 30.05 1018 10 16 0.00 0.00
7:58 am 07:58 Mostly Sunny 27 -2.8 18 -8 68 68 W 5 7 30.05 1018 10 16 0.00 0.00
8:58 am 08:58 Sunny 33 0.4 20 -6.9 58 58 SW 5 7 30.03 1017 10 16 0.00 0.00
9:58 am 09:58 Mostly Sunny 39 3.9 17 -8.5 40 40 NW 22 35 30.01 1016 10 16 0.00 0.00
10:58 am 10:58 Sunny 40 4.4 18 -8 40 40 NNW 18 30 30.01 1016 10 16 0.00 0.00
11:58 am 11:58 Sunny 40 4.7 19 -7.4 42 42 NNW 17 28 30.00 1016 10 16 0.00 0.00
12:58 pm 12:58 Sunny 41 5.2 19 -7.1 41 41 NNW 22 35 29.98 1015 10 16 0.00 0.00
1:58 pm 13:58 Sunny 42 5.3 19 -7.4 40 40 NNW 17 28 29.97 1015 10 16 0.00 0.00
2:58 pm 14:58 Sunny 41 4.8 20 -6.4 44 44 N 12 19 29.96 1015 10 16 0.00 0.00
3:58 pm 15:58 Sunny 37 2.7 21 -6 53 53 N 10 17 29.99 1016 10 16 0.00 0.00
4:58 pm 16:58 Mostly Sunny 35 1.4 21 -6.1 58 58 Calm 30.02 1017 10 16 0.00 0.00
5:58 pm 17:58 Mostly Cloudy 34 1.3 21 -6.1 58 58 NNE 6 9 30.03 1017 10 16 0.00 0.00
6:58 pm 18:58 Cloudy 33 0.8 22 -5.8 62 62 Calm 30.06 1018 10 16 0.00 0.00
7:58 pm 19:58 Mostly Cloudy 32 -0.2 23 -5 70 70 ENE 8 13 30.07 1018 10 16 0.00 0.00
8:58 pm 20:58 Cloudy 32 -0.1 24 -4.6 72 72 ENE 7 11 30.07 1018 10 16 0.00 0.00
9:58 pm 21:58 Cloudy with Light Snow 31 -0.8 27 -2.6 88 88 Calm 30.07 1018 3 4 0.00 0.00
10:58 pm 22:58 Cloudy with Light Snow 29 -1.4 28 -2 96 96 Calm 30.08 1019 8 13 0.01 0.25
11:58 pm 23:58 Cloudy with Light Snow 29 -1.6 28 -2 97 97 Calm 30.10 1019 3 4 0.01 0.25

Powered by AerisWeather